SCP
0 0 0 0 0 0 0 0 0 0 0 0 0 0 0 0 0 0 0 0 0 0 0 0 0 0 0 0 0 0 0 0 0 0 0 0 0 0 0 0 0 0 0
0 0 0 0 0 0 0 0 0 0 0 -0 -0 0 0 0 0 0 0 0 0 0 0 0 0 0 0 0 0 0 0 0 0 0 0 0 0 0 0 0 0 0 0
0 0 0 0 0 0 0 0 0 0 0 0 0 0 0 0 0 0 0 0 0 0 0 0 0 0 0 0 0 0 0 0 0 0 0 0 0 0 0 0 0 0 0
0 0 0 0 0 0 0 0 0 0 0 0 0 0 0 0 0 0 0 0 0 0 0 0 0 0 0 0 0 0 0 0 0 0 0 0 0 0 0 0 0 0 0
0 0 0 0 0 0 0 0 0 0 0 0 0 0 0 0 0 0 0 0 0 0 0 0 0 0 0 0 0 0 0 0 0 0 0 0 0 0 0 0 0 0 0
0 0 0 0 0 0 0 0 0 0 0 0 0 0 0 0 0 0 0 0 0 0 0 0 0 0 0 0 0 0 0 0 0 0 0 0 0 0 0 0 0 0 0
0 0 0 0 0 0 0 0 0 0 0 0 0 0 0 0 0 0 0 0 0 0 0 0 0 0 0 0 0 0 0 0 0 0 0 0 0 0 0 0 0 0 0
0 0 0 0 0 0 0 0 0 0 0 0 0 0 0 0 0 0 0 0 0 0 0 0 0 0 0 0 0 -0 -0 0 0 0 0 0 0 0 0 0 0 0 0
0 0 0 0 0 0 0 0 0 0 0 0 0 0 0 0 0 0 0 0 0 0 0 0 0 0 0 0 0 -0 -0 0 0 0 0 0 0 0 0 0 0 0 0
0 0 0 0 0 0 0 0 0 0 0 0 0 0 0 0 0 0 0 0 0 0 0 0 0 0 0 0 -0 -0 -0 -0 0 0 0 0 0 0 0 0 0 0 0
0 0 0 0 0 0 0 0 0 0 0 0 0 0 0 0 0 0 0 0 0 0 0 0 0 0 0 0 0 -0 -0 -0 0 0 0 0 0 0 0 0 0 0 0
0 0 0 0 0 0 0 0 0 0 0 0 0 0 0 0 0 0 0 0 0 0 0 0 0 0 0 0 0 0 0 0 0 0 0 0 0 0 0 0 0 0 0
0 0 0 0 0 0 0 0 0 0 0 0 0 0 0 0 0 0 0 0 0 0 0 0 0 0 0 0 0 0 0 0 0 0 0 0 0 0 0 0 0 0 0
0 0 0 0 0 0 0 0 0 0 0 0 0 0 0 0 0 0 0 0 0 0 0 0 0 0 0 0 0 0 0 0 0 0 0 0 0 0 0 0 0 0 0
0 0 0 0 0 0 0 0 0 0 0 0 0 0 0 0 0 0 0 0 0 0 0 0 0 0 0 0 0 0 0 0 0 0 0 0 0 0 0 0 0 0 0
0 0 0 0 0 0 0 0 0 0 0 0 0 0 0 0 0 0 0 0 0 0 0 0 0 0 0 0 0 0 0 0 0 0 0 0 0 0 0 0 0 0 0
0 0 0 0 0 0 0 0 0 0 0 0 0 0 0 0 0 0 0 0 0 0 0 0 0 0 0 0 0 0 0 0 0 0 0 0 0 0 0 0 0 0 0
0 0 0 0 0 0 0 0 0 0 0 0 0 0 0 0 0 0 0 0 0 0 0 0 0 0 0 0 0 0 0 0 0 0 0 0 0 0 0 0 0 0 0
0 0 0 0 0 0 0 0 0 0 0 0 0 0 0 0 0 0 0 0 0 0 0 0 0 0 0 0 0 0 0 0 0 0 0 0 0 0 0 0 0 0 0
0 0 0 0 0 0 0 0 0 0 0 0 0 0 0 0 0 0 0 0 0 0 0 0 0 0 0 0 0 0 0 0 0 0 0 0 0 0 0 0 0 0 0
0 0 0 0 0 0 0 0 0 0 0 0 0 0 0 0 0 0 0 0 0 0 0 0 0 0 0 0 0 0 0 0 0 0 0 0 0 0 0 0 0 0 0
0 0 0 0 0 0 0 0 0 0 0 0 0 0 0 0 0 0 0 0 0 0 0 0 0 0 0 0 0 0 0 0 0 0 0 0 0 0 0 0 0 0 0
0 0 0 0 0 0 0 0 0 0 0 0 0 0 0 0 0 0 0 0 0 0 0 0 0 0 0 0 0 0 0 0 0 0 0 0 0 0 0 0 0 0 0
0 0 0 0 0 0 0 0 0 0 0 0 0 0 0 0 0 0 0 0 0 0 0 0 0 0 0 0 0 0 0 0 0 0 0 0 0 0 0 0 0 0 0
0 0 0 0 0 0 0 0 0 0 0 0 0 0 0 0 0 0 0 0 0 0 0 0 0 0 0 0 0 0 0 0 0 0 0 0 0 0 0 0 0 0 0
0 0 0 0 0 0 0 0 0 0 0 0 0 0 0 0 0 0 0 0 0 0 0 0 0 0 0 0 0 0 0 0 0 0 0 0 0 0 0 0 0 0 0
Wind_Speed
3 3 3 3 3 3 3 4 4 4 4 5 5 5 5 5 5 5 4 4 5 5 4 5 6 4 4 4 4 4 4 3 4 3 2 2 3 3 3 3 3 3 3
3 3 4 3 3 4 4 4 4 5 5 5 5 5 6 6 5 6 6 5 6 6 6 6 6 5 5 4 4 5 5 4 4 4 3 3 4 4 3 3 3 3 3
3 3 3 3 4 4 5 4 4 4 4 4 5 6 6 6 6 6 6 6 7 7 6 6 6 6 6 5 5 5 4 4 3 4 3 2 2 2 2 3 3 2 3
3 3 4 4 5 4 4 4 4 4 4 4 5 5 6 6 6 6 6 6 6 7 6 6 7 8 7 7 6 6 5 4 4 4 4 3 3 3 3 3 2 2 3
3 4 4 4 3 3 3 4 3 4 4 4 4 5 4 5 5 6 6 6 6 6 6 7 7 9 9 8 6 6 6 5 4 4 4 3 3 4 4 3 4 2 2
3 4 4 3 3 3 3 3 3 4 4 4 4 5 5 5 8 9 7 6 6 6 6 6 7 8 10 11 10 10 9 8 7 5 5 6 6 5 4 4 3 2 3
3 3 3 3 3 3 3 3 4 4 3 4 4 4 5 6 9 10 9 6 6 6 6 5 5 6 8 7 9 10 11 12 10 7 7 7 6 6 5 5 5 4 4
3 3 2 2 3 3 3 3 4 3 4 4 4 4 5 6 9 9 9 5 5 5 6 6 6 5 7 8 7 7 7 7 8 7 7 7 6 5 6 6 5 3 2
2 3 3 2 3 3 3 4 3 3 4 4 4 4 5 5 8 8 7 4 4 5 5 5 5 5 8 9 7 7 6 6 7 8 8 7 7 8 6 4 4 3 3
3 3 3 2 3 3 4 3 3 3 3 3 3 4 4 5 7 8 7 3 4 4 4 5 7 7 8 9 7 7 8 6 4 4 4 5 5 6 7 6 5 5 3
4 4 3 2 3 3 3 2 2 2 2 2 3 3 4 5 6 8 8 4 4 4 4 4 4 8 9 9 7 6 7 5 5 4 4 3 3 3 3 4 4 5 4
3 3 3 3 2 2 2 2 2 2 2 3 2 3 3 4 5 7 9 7 6 4 4 4 5 9 9 8 6 6 6 5 3 3 3 3 3 3 3 3 3 3 3
3 3 3 3 2 2 1 2 1 2 2 2 2 3 3 2 4 7 8 8 8 5 4 6 7 8 7 5 6 6 5 3 3 4 4 3 3 3 3 2 2 2 1
3 3 3 3 3 2 2 1 1 2 2 2 3 3 3 3 3 4 4 5 6 5 4 5 6 6 4 3 3 3 3 3 4 4 3 2 2 2 2 2 2 2 1
3 3 3 3 3 3 2 2 2 3 3 3 3 3 3 4 5 7 5 4 4 4 3 2 2 2 3 2 2 2 2 2 3 2 3 2 3 3 2 2 2 2 2
3 3 3 3 3 3 2 3 4 3 5 6 5 5 4 6 7 6 7 6 6 6 3 3 3 3 3 3 3 3 3 3 3 3 3 3 3 3 3 2 2 3 3
3 3 3 3 2 3 3 3 3 4 4 5 5 5 6 6 6 6 5 4 4 4 3 3 3 3 3 3 3 3 3 3 3 3 3 3 3 3 3 3 3 3 3
4 4 3 2 2 2 3 3 3 3 3 3 5 6 6 6 5 5 3 1 1 2 2 3 3 3 3 3 3 3 3 3 3 3 3 3 3 3 3 4 4 4 4
3 3 3 2 2 2 2 2 2 3 3 3 4 4 6 5 4 3 2 1 1 1 1 2 2 2 2 2 2 3 3 3 3 3 3 3 3 3 4 4 4 5 4
3 6 5 3 2 2 2 2 2 2 2 3 3 3 3 3 2 2 1 1 1 1 1 2 2 2 2 2 2 3 3 3 3 3 3 3 4 4 4 5 4 4 4
3 4 6 4 2 3 3 3 3 2 2 3 3 4 5 2 2 2 1 1 1 2 2 2 2 2 2 2 2 3 4 4 4 4 4 4 4 4 4 4 4 4 3
3 3 3 3 3 3 3 3 3 3 3 3 3 4 6 3 2 1 1 2 2 2 2 2 2 2 2 3 3 3 4 4 4 4 4 4 4 4 4 4 4 4 4
2 3 3 3 3 4 4 3 3 3 3 3 3 3 3 2 2 2 2 2 2 2 2 2 2 2 2 2 3 3 4 4 4 4 4 4 4 4 4 4 5 5 5
2 2 3 3 3 3 3 3 3 3 3 3 3 3 3 3 2 3 2 2 2 2 2 2 2 3 4 3 3 3 3 4 4 4 6 5 5 4 4 5 5 6 5
2 2 2 3 3 3 3 3 3 3 3 3 3 3 3 3 3 3 3 2 3 2 3 3 2 3 4 4 4 4 5 7 6 5 5 5 5 6 5 6 5 5 5
2 2 2 3 3 3 3 3 4 4 3 3 3 3 3 3 3 3 3 3 3 3 3 3 3 3 4 4 5 6 7 7 7 8 5 5 6 5 6 5 6 6 6
Wind_Direction
223 220 217 211 207 205 213 214 214 212 206 205 208 214 217 213 205 206 213 208 210 214 212 211 219 212 206 206 201 201 211 207 225 237 214 207 203 216 231 226 230 231 243
233 221 224 217 205 207 219 220 217 216 212 213 210 214 220 217 208 207 213 213 214 217 219 216 218 212 210 208 207 209 212 215 213 231 219 204 209 212 214 222 236 239 236
248 223 223 221 217 216 220 219 218 218 215 217 214 215 219 219 216 214 214 217 219 220 218 218 217 210 214 210 210 214 215 222 215 219 223 202 204 201 206 229 229 234 241
255 234 224 227 226 225 222 217 219 219 215 218 222 222 222 221 220 216 215 218 222 223 221 221 218 212 214 212 213 213 208 212 209 216 218 205 204 195 191 208 228 224 238
259 250 237 233 229 226 223 221 222 225 224 221 223 227 225 223 223 218 213 215 220 224 224 225 225 221 221 219 217 209 201 206 206 215 215 208 205 194 203 198 217 229 242
251 255 250 237 232 228 227 223 225 228 227 223 223 224 226 231 236 231 220 215 218 220 225 227 231 227 225 228 231 225 212 207 207 213 217 217 214 205 197 198 200 206 242
253 258 249 234 235 236 234 229 230 231 227 227 226 224 230 236 239 237 229 220 215 217 220 225 232 229 225 221 229 233 227 226 223 217 220 217 211 202 193 201 205 209 225
263 264 267 250 243 241 233 236 240 237 229 230 230 227 227 238 240 237 233 220 221 221 222 223 227 235 226 218 216 221 221 224 228 226 226 220 214 203 197 202 203 209 231
280 278 278 267 251 242 241 242 246 240 237 234 234 226 226 240 241 239 235 213 223 229 230 227 228 234 239 226 214 217 225 231 239 242 241 233 225 218 201 178 182 190 224
296 289 283 266 255 247 246 248 251 243 241 241 245 228 226 236 240 238 236 215 223 229 231 229 234 239 244 227 213 208 218 224 213 218 228 229 219 213 213 198 191 197 200
312 305 292 276 266 256 252 247 240 242 234 236 248 240 232 237 241 239 237 222 219 226 232 232 235 244 243 235 226 215 222 219 201 199 203 205 203 203 207 206 200 198 197
320 316 311 302 293 284 252 253 235 221 228 234 239 247 239 242 242 241 240 239 236 230 236 235 239 243 243 240 235 224 229 227 194 190 197 206 206 206 203 203 204 209 207
328 324 326 327 317 295 256 245 239 224 228 239 239 246 250 244 245 248 248 245 244 242 242 244 248 247 242 235 231 227 220 207 198 198 207 214 204 195 182 180 185 176 156
328 326 330 332 328 321 302 273 254 243 247 248 247 251 258 251 243 243 241 240 240 246 247 248 244 237 235 243 229 218 213 202 201 206 205 199 183 183 191 185 187 178 180
338 333 334 334 331 331 323 301 281 258 257 260 252 248 248 254 253 255 250 238 221 222 216 219 213 209 205 203 198 197 196 196 200 187 187 190 196 196 197 181 178 176 192
334 337 336 334 332 331 329 325 314 300 294 288 277 268 268 270 276 264 258 252 240 225 214 204 208 208 207 206 203 200 197 197 197 193 193 194 197 195 192 182 180 185 197
325 326 325 326 328 327 325 322 324 327 319 315 311 297 290 290 284 278 266 244 230 212 209 204 210 212 209 207 209 204 204 201 196 196 198 197 198 197 192 193 192 193 202
327 323 327 322 322 319 317 316 313 313 319 323 322 319 313 303 295 292 283 250 221 209 210 209 214 214 211 212 215 210 201 191 192 197 198 198 197 197 198 201 201 199 204
329 325 322 322 320 317 319 319 316 315 314 317 325 322 320 314 310 304 291 224 219 229 228 227 224 218 218 216 217 211 202 200 198 196 198 198 198 196 203 205 205 212 209
328 328 335 332 332 332 327 323 320 316 315 316 315 314 318 323 322 314 293 268 242 247 242 238 240 236 226 220 218 215 206 203 200 201 204 202 202 201 204 204 204 206 209
329 328 336 338 332 325 321 317 312 309 307 305 303 307 314 312 295 291 287 275 259 255 248 245 242 238 233 227 221 218 214 212 207 204 208 208 203 202 205 204 204 204 203
329 328 328 325 323 321 322 320 320 314 309 308 312 315 319 331 316 295 288 285 276 266 256 245 242 239 233 227 222 219 217 214 211 204 203 205 203 201 200 200 201 201 198
334 330 327 325 323 323 333 331 324 318 317 316 315 315 318 321 319 312 299 292 287 277 264 248 245 249 244 238 228 218 219 221 215 202 197 199 200 200 196 197 199 200 200
336 328 325 325 326 328 327 325 324 321 318 316 316 316 317 315 312 311 307 303 295 284 271 254 246 247 250 250 242 232 228 225 214 204 200 199 200 202 200 200 203 204 205
333 329 326 324 323 323 322 322 321 321 319 318 316 317 319 320 320 317 313 308 303 296 292 282 265 256 251 249 248 243 240 239 235 215 198 197 200 203 202 203 204 202 205
332 325 320 318 316 316 316 316 317 317 314 313 313 314 314 312 311 309 310 308 306 303 300 297 286 278 268 258 252 249 250 246 242 234 213 198 199 203 199 202 203 205 207